Simultaneous Nadir Overpasses (SNOs) Predictions

Prediction of SNOs between AQUA and NPP Satellite Orbit:

Table of predicted SNOs for the next 14.0 days since TLE Epoch: 6/26/2021
Index Date (AQUA) Time (AQUA) Lat,Lon (AQUA) SZA (AQUA ) Date (NPP) Time (NPP) Lat,Lon (NPP) SZA (NPP ) Distance(km) Time Diff (sec)
1 06/28/2021 14:05:03 75.70,-153.13 74.99 06/28/2021 14:04:45 75.71,-153.10 75.00 1.03 18
2 06/28/2021 14:54:09 -76.74, 17.83 106.24 06/28/2021 14:55:08 -76.74, 17.90 106.31 1.89 59
3 07/01/2021 05:32:24 -74.73, 152.48 103.72 07/01/2021 05:31:18 -74.73, 152.46 103.66 0.65 66
4 07/01/2021 06:21:25 75.96, -36.47 74.87 07/01/2021 06:21:36 75.96, -36.50 74.87 0.90 11
5 07/03/2021 21:48:45 -75.10, -90.70 103.90 07/03/2021 21:48:08 -75.09, -90.77 103.85 2.16 37
6 07/03/2021 22:37:48 76.21, 80.19 74.80 07/03/2021 22:38:28 76.21, 80.12 74.79 2.21 40
7 07/06/2021 14:04:56 -75.94, 27.58 104.61 07/06/2021 14:04:47 -75.95, 27.68 104.63 2.80 9
8 07/06/2021 14:54:09 76.55,-162.80 74.67 07/06/2021 14:55:18 76.54,-162.90 74.64 2.89 69
9 07/09/2021 05:32:13 75.12, -26.51 76.67 07/09/2021 05:31:16 75.12, -26.45 76.70 1.81 57



Historial Predications of SNOs between AQUA and NPP
